Location: Ferchesar
(52.6477°N, 12.4298°E)
Time: 20:08:43
(UTC+01:00)

A-11 Canister half - Pass Details

Date: 04 December 2021
Orbit: 1516 x 1684 km, 47.2° (Epoch: 23 January)

Event Time Altitude Azimuth Distance (km) Brightness Sun altitude
Rises 06:12:55 0° 203° (SSW) 4,743 11.5 -15.7°
Reaches altitude 10° 06:16:29 10° 192° (SSW) 3,787 11.1 -15.2°
Maximum altitude 06:24:16 29° 138° (SE) 2,656 10.9 -14.1°
Drops below altitude 10° 06:32:16 10° 84° (E) 3,905 12.2 -12.9°
Sets 06:35:59 0° 74° (ENE) 4,914 12.6 -12.4°
